DECAYED

SL-16 DEB, 42250 (Decayed)

Orbit data source: Space-Track

SL-16 DEB, 42250 was space debris in LEO originally from a launch on Fri, 26 Mar 1993 UTC launched from the Tyuratam Missile And Space Complex (TTMTR). Debris objects in space refer to the collection of defunct objects orbiting the Earth. Examples of debris include non-operational satellites, rocket bodies, and fragments generated from explosions, collisions, or faulty payload assembly.

Not visible in the next 10 days
SL-16 DEB details
Identifier
42250, 1993-016DE
Orbit
Decayed
Last TLE update2 months ago
Origin
Flag of CISRVSN RF (CIS)
ManufacturerUnknown
MissionDecayed spacecraft
Bus & MotorUnknown
MassUnknown
Launch date (UTC)
1993-03-26 (32 years ago)
Launch vehicleUnknown
Launch site
Tyuratam Missile And Space Complex (TTMTR)
Object type
Payload
Rocket body
Debris
Shape & HBRUnknown
Radar Cross SectionSmall (<0.1 m²)

Expand to show TLE details & history

TLE from 2 months ago
0 SL-16 DEB
1 42250U 93016DE  24315.10376266  .16752230  00000-0  90591-1 0  9999
2 42250  70.9283  90.2544 0027389 344.1828  15.8518 15.75539387469085
Epoch: 2024-11-10T02:29Z
Definitive object data (Epoch: 2024-11-10T02:29:25.093Z)
Latitude-0.0001°
Longitude3.15163°
Altitude327.962 km
Speed7.722 km/s
True Right ascension06h 01m 01s
True Declination0° 00' 00"
Sunlit
Object was in full shadow at TLE epoch
Visualization observer readout
Observer readout values are unavailable because the object's trajectory could not be propagated. This is usually caused when the trajectory data is faulty or the object's orbit has decayed.
Visualization observer readout
Observer readout values are unavailable because the object's trajectory could not be propagated. This is usually caused when the trajectory data is faulty or the object's orbit has decayed.
Orbital elements
Apogee altitude359.277 km
Perigee altitude322.472 km
Semi-major axis6,719.011 km
Eccentricity0.0027389
Inclination70.9283°
RAAN90.2544°
Arg. of periapsis344.1828°
True anomaly15.93781°
Mean anomaly15.8518°
Eccentric anomaly15.89478°
Mean motion3.94081 °/min
BSTAR0.090591
Orbital period91.35 mins
Loading maneuver chart data...
Loading historical data...
Loading historical data...
Loading historical data...
Loading historical data...
Loading historical data...
Loading historical data...
Loading historical data...

SL-16 DEB Visibility forecast

Observer location: undefined°, undefined

This satellite is decayed
Span
Click to sort rows by Start time (UTC) header in descending order
Start Az.
Max El. time (UTC)
Max El. Az.
Max El.
End time (UTC)
End Az.
|